Date String (YYYY-MM-DD hh:mm:ss) UTC,Instrument flags,absolute air pressure of the measurement (hPa),sample flow rate (lpm),inlet stack bypass flow (lpm),air temperature of the measurement (°C),ambient temperature measured by the external sensor (°C),aerosol sample conditioner tube jacket temperature (°C),OPC LED temperature (°C),internal box temperature (°C),relative humidity of the measurement (%),span deviation,mass concentration of particles derived from Lorenz-Mie calculation of OPC scattering (μg/m³),mass concentration of particles derived from Lorenz-Mie calculation of OPC scattering (μg/m³),mass concentration of particles derived from Lorenz-Mie calculation of OPC scattering (μg/m³)
DateTimeUTC,F1_M11,P_M11,Q1_M11,Q2_M11,T1_M11,T2_M11,T3_M11,T4_M11,T5_M11,U1_M11,ZSPAN_M11,X0_M11,X2_M11,X1_M11
2024-06-03 17:00:00,SystemResetWarning,0823.5,5.00,000.00,029.5,028.0,000.0,038.2,031.1,020.4,0000.0,0021.09,0005.79,0004.10
2024-06-03 17:01:00,SystemResetWarning,0823.4,4.99,000.00,029.6,028.3,000.0,038.1,031.2,020.6,0000.0,0021.18,0005.80,0004.11
2024-06-03 17:02:00,SystemResetWarning,0823.4,5.00,000.00,029.6,028.5,000.0,038.1,031.3,020.5,0000.0,0021.42,0005.81,0004.12
2024-06-03 17:03:00,SystemResetWarning,0823.4,5.01,000.00,029.7,028.7,000.0,038.1,031.4,021.1,0000.0,0022.54,0005.81,0004.12
2024-06-03 17:04:00,SystemResetWarning,0823.4,5.01,000.00,029.7,028.9,000.0,038.1,031.5,021.3,0000.0,0022.55,0005.84,0004.14
2024-06-03 17:05:00,SystemResetWarning,0823.4,4.99,000.00,029.8,029.0,000.0,038.1,031.5,021.1,0000.0,0022.47,0005.81,0004.14
2024-06-03 17:06:00,SystemResetWarning,0823.4,4.99,000.00,029.9,029.2,000.0,038.1,031.6,020.8,0000.0,0021.75,0005.76,0004.17
2024-06-03 17:07:00,SystemResetWarning,0823.4,5.00,000.00,029.9,029.3,000.0,038.2,031.7,020.8,0000.0,0020.55,0005.79,0004.20
2024-06-03 17:08:00,SystemResetWarning,0823.4,5.01,000.00,030.0,029.4,000.0,038.2,031.8,020.6,0000.0,0019.77,0005.73,0004.20
2024-06-03 17:09:00,SystemResetWarning,0823.4,5.01,000.00,030.0,029.5,000.0,038.2,031.8,019.9,0000.0,0019.14,0005.70,0004.22
2024-06-03 17:10:00,SystemResetWarning,0823.4,4.99,000.00,030.1,029.5,000.0,038.2,031.9,020.3,0000.0,0018.84,0005.71,0004.24
2024-06-03 17:11:00,SystemResetWarning,0823.4,4.99,000.00,030.1,029.6,000.0,038.3,031.9,020.2,0000.0,0018.57,0005.74,0004.26
2024-06-03 17:12:00,SystemResetWarning,0823.4,5.00,000.00,030.2,029.7,000.0,038.3,032.0,020.2,0000.0,0017.69,0005.79,0004.26
2024-06-03 17:13:00,SystemResetWarning,0823.4,5.00,000.00,030.2,029.7,000.0,038.3,032.0,021.0,0000.0,0016.85,0005.81,0004.28
2024-06-03 17:14:00,SystemResetWarning,0823.3,5.00,000.00,030.3,029.8,000.0,038.4,032.0,021.2,0000.0,0016.72,0005.83,0004.29
2024-06-03 17:15:00,SystemResetWarning,0823.3,5.00,000.00,030.2,028.5,000.0,038.5,031.4,020.9,0000.0,0016.48,0005.79,0004.29
2024-06-03 17:16:00,SystemResetWarning,0823.1,5.00,000.00,029.7,026.1,000.0,038.5,030.3,021.3,0000.0,0016.37,0005.82,0004.30
2024-06-03 17:17:00,SystemResetWarning,0823.1,5.01,000.00,029.4,025.9,000.0,038.4,030.0,021.3,0000.0,0016.59,0005.86,0004.30
2024-06-03 17:18:00,SystemResetWarning,0823.1,5.00,000.00,029.3,026.4,000.0,038.3,030.3,022.4,0000.0,0017.03,0005.84,0004.32
2024-06-03 17:19:00,SystemResetWarning,0823.0,5.00,000.00,029.3,026.9,000.0,038.2,030.5,022.9,0000.0,0017.15,0005.92,0004.34
2024-06-03 17:20:00,SystemResetWarning,0823.1,5.00,000.00,029.3,027.3,000.0,038.1,030.7,022.7,0000.0,0018.34,0005.95,0004.35
2024-06-03 17:21:00,SystemResetWarning,0823.1,4.99,000.00,029.4,027.7,000.0,038.0,030.9,022.3,0000.0,0019.39,0005.98,0004.38
2024-06-03 17:22:00,SystemResetWarning,0823.1,5.00,000.00,029.4,028.0,000.0,038.0,031.0,022.4,0000.0,0020.22,0005.98,0004.39
2024-06-03 17:23:00,SystemResetWarning,0823.1,5.00,000.00,029.5,028.3,000.0,038.0,031.1,021.7,0000.0,0021.74,0005.92,0004.40
2024-06-03 17:24:00,SystemResetWarning,0823.1,5.00,000.00,029.5,028.5,000.0,038.0,031.2,022.2,0000.0,0022.19,0005.93,0004.42
2024-06-03 17:25:00,SystemResetWarning,0823.1,5.00,000.00,029.6,028.7,000.0,038.0,031.3,021.8,0000.0,0021.91,0006.03,0004.45
2024-06-03 17:26:00,SystemResetWarning,0823.1,4.99,000.00,029.6,028.8,000.0,038.0,031.4,021.8,0000.0,0022.24,0006.03,0004.47
2024-06-03 17:27:00,SystemResetWarning,0823.1,5.00,000.00,029.7,029.0,000.0,038.0,031.4,022.6,0000.0,0022.18,0005.99,0004.49
2024-06-03 17:28:00,SystemResetWarning,0823.1,4.99,000.00,029.8,029.1,000.0,038.0,031.5,022.2,0000.0,0022.49,0005.95,0004.49
2024-06-03 17:29:00,SystemResetWarning,0823.0,5.00,000.00,029.8,029.2,000.0,038.0,031.6,021.9,0000.0,0021.65,0005.95,0004.50
2024-06-03 17:30:00,SystemResetWarning,0823.0,5.01,000.00,029.9,029.3,000.0,038.0,031.7,022.3,0000.0,0020.83,0005.93,0004.51
2024-06-03 17:31:00,SystemResetWarning,0823.0,5.00,000.00,029.9,029.4,000.0,038.1,031.7,022.2,0000.0,0020.69,0006.02,0004.52
2024-06-03 17:32:00,SystemResetWarning,0823.0,5.00,000.00,030.0,029.5,000.0,038.1,031.8,021.9,0000.0,0020.12,0006.09,0004.53
2024-06-03 17:33:00,SystemResetWarning,0823.0,5.01,000.00,030.0,029.5,000.0,038.1,031.8,022.3,0000.0,0020.37,0006.18,0004.54
2024-06-03 17:34:00,SystemResetWarning,0823.0,5.00,000.00,030.1,029.6,000.0,038.2,031.9,022.1,0000.0,0019.95,0006.28,0004.57
2024-06-03 17:35:00,SystemResetWarning,0823.0,4.99,000.00,030.1,029.7,000.0,038.2,031.9,021.9,0000.0,0019.39,0006.25,0004.58
2024-06-03 17:36:00,SystemResetWarning,0823.0,4.99,000.00,030.2,029.7,000.0,038.3,031.9,021.5,0000.0,0018.99,0006.17,0004.57
2024-06-03 17:37:00,SystemResetWarning,0822.9,4.99,000.00,030.0,028.1,000.0,038.4,031.1,022.0,0000.0,0018.57,0006.21,0004.57
2024-06-03 17:38:00,SystemResetWarning,0822.8,5.00,000.00,029.6,025.9,000.0,038.4,030.0,022.9,0000.0,0018.49,0006.22,0004.57
2024-06-03 17:39:00,SystemResetWarning,0822.9,5.01,000.00,029.3,025.9,000.0,038.3,029.9,022.4,0000.0,0019.43,0006.35,0004.57
2024-06-03 17:40:00,SystemResetWarning,0822.9,5.00,000.00,029.2,026.4,000.0,038.2,030.2,023.0,0000.0,0021.92,0006.40,0004.58
2024-06-03 17:41:00,SystemResetWarning,0822.8,4.99,000.00,029.2,026.9,000.0,038.0,030.5,023.0,0000.0,0022.97,0006.43,0004.58
2024-06-03 17:42:00,SystemResetWarning,0822.9,5.00,000.00,029.3,027.4,000.0,037.9,030.7,023.4,0000.0,0022.88,0006.42,0004.60
2024-06-03 17:43:00,SystemResetWarning,0822.8,5.00,000.00,029.3,027.7,000.0,037.9,030.9,022.9,0000.0,0023.37,0006.37,0004.60
2024-06-03 17:44:00,SystemResetWarning,0822.8,5.00,000.00,029.3,028.0,000.0,037.9,031.0,022.9,0000.0,0023.79,0006.37,0004.61
2024-06-03 17:45:00,SystemResetWarning,0823.0,5.00,000.00,029.4,028.3,000.0,037.9,031.1,022.6,0000.0,0023.31,0006.29,0004.60
2024-06-03 17:46:00,SystemResetWarning,0823.2,5.00,000.00,029.5,028.5,000.0,037.8,031.2,022.6,0000.0,0024.71,0006.33,0004.59
2024-06-03 17:47:00,SystemResetWarning,0822.8,5.00,000.00,029.5,028.7,000.0,037.8,031.3,022.6,0000.0,0024.88,0006.34,0004.60
2024-06-03 17:48:00,SystemResetWarning,0822.8,5.00,000.00,029.6,028.9,000.0,037.9,031.4,022.6,0000.0,0025.06,0006.36,0004.61
2024-06-03 17:49:00,SystemResetWarning,0822.7,5.00,000.00,029.7,029.0,000.0,037.9,031.4,022.3,0000.0,0024.90,0006.38,0004.62
2024-06-03 17:50:00,SystemResetWarning,0822.7,5.00,000.00,029.7,029.1,000.0,037.9,031.5,022.6,0000.0,0024.24,0006.33,0004.63
2024-06-03 17:51:00,SystemResetWarning,0822.7,5.00,000.00,029.8,029.2,000.0,037.9,031.6,023.5,0000.0,0022.46,0006.18,0004.62
2024-06-03 17:52:00,SystemResetWarning,0822.6,5.00,000.00,029.9,029.3,000.0,038.0,031.7,024.1,0000.0,0021.71,0006.21,0004.64
2024-06-03 17:53:00,SystemResetWarning,0822.8,5.01,000.00,029.9,029.4,000.0,038.0,031.7,022.9,0000.0,0021.21,0006.20,0004.64
2024-06-03 17:54:00,SystemResetWarning,0822.7,5.00,000.00,030.0,029.5,000.0,038.0,031.8,022.6,0000.0,0021.07,0006.27,0004.63
2024-06-03 17:55:00,SystemResetWarning,0822.7,5.00,000.00,030.0,029.6,000.0,038.1,031.8,021.1,0000.0,0020.13,0006.27,0004.64
2024-06-03 17:56:00,SystemResetWarning,0822.7,4.99,000.00,030.1,029.4,000.0,038.1,031.8,021.4,0000.0,0019.02,0006.30,0004.64
2024-06-03 17:57:00,SystemResetWarning,0822.7,4.99,000.00,029.9,027.5,000.0,038.2,030.8,023.1,0000.0,0018.04,0006.28,0004.65
2024-06-03 17:58:00,SystemResetWarning,0822.4,5.00,000.00,029.4,025.9,000.0,038.2,029.9,023.2,0000.0,0017.80,0006.30,0004.64
2024-06-03 17:59:00,SystemResetWarning,0822.4,5.01,000.00,029.2,026.2,000.0,038.2,030.0,021.8,0000.0,0017.21,0006.29,0004.63
